Location: Unspecified
(0.0000°N, 0.0000°E)
Time: 16:13:25
(UTC+02:00)

ADEOS II - Visible Passes

Search period start: 29 May 2015 00:00
Search period end: 08 June 2015 00:00
Orbit: 800 x 803 km, 98.3° (Epoch: 28 May)

Date Brightness Start Highest point End Pass type
(mag) Time Alt. Az. Time Alt. Az. Time Alt. Az.
29 May 2.1 07:10:08 10° N 07:15:22 76° WNW 07:20:39 10° SSW visible
30 May 2.9 06:44:10 10° NNE 06:49:14 52° ESE 06:54:21 10° S visible
31 May 4.1 06:18:52 10° NE 06:23:03 25° E 06:27:23 10° SSE visible
01 Jun 4.9 05:55:05 10° E 05:56:48 12° E 05:58:57 10° SE visible
01 Jun 2.6 07:31:34 10° N 07:36:29 41° WNW 07:41:24 10° SSW visible
02 Jun 2.1 07:05:04 10° N 07:10:19 86° WNW 07:15:37 10° SSW visible
03 Jun 3.1 06:39:12 10° NNE 06:44:10 46° ESE 06:49:13 10° S visible
04 Jun 4.3 06:14:03 10° NE 06:17:59 22° E 06:22:06 10° SSE visible
05 Jun 5.0 05:51:14 10° E 05:51:43 10° E 05:52:43 10° ESE visible
05 Jun 2.4 07:26:24 10° N 07:31:25 47° WNW 07:36:27 10° SSW visible
06 Jun 2.2 07:00:01 10° NNE 07:05:16 84° E 07:10:33 10° S visible
07 Jun 3.3 06:34:15 10° NNE 06:39:06 40° ESE 06:44:03 10° S visible
